Regional Weather Roundup
Issued by NWS Northern Indiana

Home | Current Version | Previous Version | Text Only | Print | Product List | Glossary Off
Versions: 1 2 3 4 5 6 7 8 9 10 11 12 13 14 15 16 17 18 19 20 21 22 23 24 25 26 27 28 29 30 31 32 33 34 35 36 37 38 39 40 41 42 43 44 45 46 47 48 49 50

770
ASUS43 KIWX 252110
RWRIWX

KIWX WEATHER ROUNDUP
NATIONAL WEATHER SERVICE NORTHERN INDIANA
400 PM EST SAT FEB 25 2017

NOTE: "FAIR" INDICATES FEW OR NO CLOUDS BELOW 12,000 FEET WITH NO
SIGNIFICANT WEATHER AND/OR OBSTRUCTIONS TO VISIBILITY.

* THESE STATIONS ARE NOT UNDER NWS QUALITY CONTROL. THEY ALSO MAY NOT
  REPORT WEATHER SUCH AS PRECIPITATION OR FOG.

INZ001>027-252200-
NORTHERN INDIANA

CITY           SKY/WX    TMP DP  RH WIND       PRES   REMARKS
GARY*          CLOUDY    30  12  47 W14       29.92R WCI  20
VALPARAISO     CLOUDY    29  16  58 W15G25    29.91R WCI  18
MICHIGAN CITY* CLOUDY    28  14  54 W17G23    29.92R WCI  16
LAPORTE*       MOSUNNY   26  15  62 W13G24    29.90R WCI  15
KNOX*          CLOUDY    28  -4  24 W20       29.90R WCI  15
SOUTH BEND     LGT SNOW  25  18  74 W16G24    29.88R WCI  12
ELKHART*       LGT SNOW  27  18  69 W18       29.88R WCI  13
GOSHEN         FLURRIES  26  16  65 W17G25    29.87R WCI  13
MONTICELLO*    CLOUDY    30  17  59 W14G20    29.93R WCI  19
LOGANSPORT*    CLOUDY    28  19  69 W18G25    29.94R WCI  16
ROCHESTER*     MOSUNNY   30  19  64 W9G18     29.91R WCI  22
ANGOLA*        CLOUDY    25  16  68 W17       29.83R WCI  11
FORT WAYNE     FLURRIES  27  20  75 W20G31    29.88R WCI  13
HUNTINGTON*    FLURRIES  26  19  73 W14G26    29.91R WCI  14
MARION*        FLURRIES  26  20  80 W21       29.93R WCI  12

$$
INZ028>050-252200-
CENTRAL INDIANA

CITY           SKY/WX    TMP DP  RH WIND       PRES   REMARKS
LAFAYETTE      CLOUDY    28  20  71 W17G24    29.95R WCI  16
KOKOMO*        FLURRIES  28  19  69 W21G26    29.94R WCI  15
MUNCIE*        CLOUDY    29  18  63 W18G28    29.92R WCI  16
INDIANAPOLIS   PTSUNNY   32  16  51 W24       29.96R WCI  19

$$
MIZ043>046-050>051-056>058-064>065-071>073-077>080-252200-
SOUTHWEST LOWER MICHIGAN

CITY           SKY/WX    TMP DP  RH WIND       PRES   REMARKS
BATTLE CREEK   LGT SNOW  25  19  78 W16       29.81R WCI  12
BENTON HARBOR  LGT SNOW  25  17  72 W17G28    29.88R WCI  12
COLDWATER*     LGT SNOW  26  19  75 W22G29    29.82R WCI  11
HILLSDALE*     FLURRIES  27  19  74 W14G24    29.78R WCI  15
HOLLAND        LGT SNOW  23  15  71 W17G26    29.85R WCI   9
GRAND RAPIDS   LGT SNOW  24  15  68 W23G30    29.80R WCI   9
KALAMAZOO      LGT SNOW  25  16  68 W14       29.83R WCI  13
STURGIS*       CLOUDY    25  17  73 W16G24    29.84R WCI  12
THREE RIVERS*  CLOUDY    25  19  75 W16G23    29.85R WCI  13

$$
OHZ001>008-015>018-024>025-252200-
NORTHWEST OHIO

CITY           SKY/WX    TMP DP  RH WIND       PRES   REMARKS
WAUSEON*       LGT RAIN  28  19  69 W23G30    29.82R WCI  14
DEFIANCE       LGT SNOW  26  17  68 W13G25    29.86R WCI  15
FINDLAY        CLOUDY    30  18  60 W28G33    29.83R WCI  15
TOLEDO EXPRESS FLURRIES  28  19  69 W25G33    29.81R WCI  13
TOLEDO METCALF CLOUDY    30  20  66 W26G35    29.82R WCI  16
LIMA           FLURRIES  27  21  78 W22G28    29.86R WCI  13

$$
AND FOR LAKE MICHIGAN COASTAL AND OPEN LAKE BUOY OBSERVATIONS

STATION/POSITION TEMP    WIND        PRES    VSBY  WAVE
                 AIR SEA DIR/SP/G                  HT/PER
                 (F)     (DEG/KT/KT) (MB)    (MI)  (FT/S)
CALUMET HARBOR    27     260/ 11/ 17 1012.2R
MICHIGAN CITY     25     240/ 24/ 27   N/A
BURNS HARBOR      27     280/ 19/ 23 1012.9R
SAINT JOSEPH      26     280/ 19/ 24 1013.2

$$
&&




USA.gov is the U.S. government's official web portal to all federal, state and local government web resources and services.